COSMOS 1275 DEB, 42191

Orbit data source: Space-Track

COSMOS 1275 DEB, 42191 is space debris in LEO originally from a launch on Thu, 04 Jun 1981 UTC launched from the Plesetsk Missile And Space Complex (PKMTR). Debris objects in space refer to the collection of defunct objects orbiting the Earth. Examples of debris include non-operational satellites, rocket bodies, and fragments generated from explosions, collisions, or faulty payload assembly.

Loading next visibility...
Identifier
42191, 1981-053TF
Orbit
LEO
Country
Flag of CISCIS
Related business
Manufacturer
Unknown
Mission
Spacecraft
Bus & Motor
Unknown
Mass
Unknown
Launch date (UTC)
1981-06-04 (45 years ago)
Launch vehicle
Unknown
Launch site
Plesetsk Missile And Space Complex (PKMTR)
Object type
Payload
Rocket body
Debris
Shape & HBR
Unknown shape, 0.1 m
Radar Cross Section
Small (<0.1 m²)

Expand to show TLE details & history
Last TLE update: 22 hours ago

TLE from 22 hours ago
0 COSMOS 1275 DEB
1 42191U 81053TF  26106.47065700  .00001304  00000-0  72010-3 0  9999
2 42191  82.8232 175.5597 0041009 142.8681 217.5345 14.10349262634470
Epoch: 2026-04-16T11:17Z
TLE epoch observation values (Epoch: 2026-04-16T11:17:44.764Z)
Latitude
0.00004°
Longitude
161.50545°
Altitude
884.705 km
Speed
7.398 km/s
True Right ascension
11h 42m 14s
True Declination
0° 00' 00"
Sunlit
Object was in full shadow at epoch
Visualization orbit readout
Latitude
Unknown
Longitude
Unknown
Altitude
Unknown
Speed
Unknown
Apparent Right ascension
Unknown
Apparent Declination
Unknown
Sunlit
N/A
Visualization observer readout
Local Sidereal Time
15:55:49
Azimuth
Unknown
Elevation
Unknown
Doppler factor
Unknown
Orbital elements
Apogee altitude
884.945 km
Perigee altitude
825.618 km
Semi-major axis
7,233.418 km
Eccentricity
0.0041
Inclination
82.8232°
RAAN
175.5597°
Arg. of periapsis
142.8681°
True anomaly
217.24936°
Mean anomaly
217.5345°
Eccentric anomaly
217.39182°
Mean motion
3.52799 °/min
Orbital period
102.04 mins
BSTAR
0.0007201
Loading maneuver chart data...
Computing Atmospheric mass density...

Documentation

Showing up to 5 results
|